Find USA 81

NORAD ID: 21949 Int'l Des: 1992-023 Owner: NRO Country: US operational
LEOCIRCULARPOLAR

リアルタイム位置

3D地球を読み込み中...

USA 81について

説明を読み込み中...

次回通過

Passes for default location (London). Set your location on the main map for personalized predictions.

高度履歴

Loading altitude history...

軌道要素

1 21949U 92023A 26104.98466634 .00000133 00000-0 41703-4 0 9996
2 21949 85.0033 110.4901 0001241 83.9113 276.2221 14.32379862 99987
Epoch: Apr 14, 2026 • Age: 7 hours

現在のステータス

高度 786.0 km
速度 7.46 km/s
衛星直下点 15.05°N, 21.07°W
打ち上げ日 Apr 25, 1992
運用期間 33.9 years
タイプ military

技術仕様

分類 Payload
質量 1450.00 kg
乾燥質量 1200.00 kg
総質量 1450.00 kg
長さ 0.50 m
直径 1.00 m
スパン 10.00 m
形状 Cyl + Ant
製造者 LMSC/MOTO
バスタイプ NRO-T2
フェーズステータス In Orbit
所有者/国 NRO/US

Most Searched